Regional Weather Roundup
Issued by NWS

Home | Current Version | Previous Version | Text Only | Print | Product List | Glossary Off
Versions: 1 2 3 4 5 6 7 8 9 10 11 12 13 14 15 16 17 18 19 20 21 22 23 24 25 26 27 28 29 30 31 32 33 34 35 36 37 38 39 40 41 42 43 44 45 46 47 48 49 50

000
ASUS43 KTOP 300108
RWRKS

WEATHER ROUNDUP FOR KANSAS
NATIONAL WEATHER SERVICE GOODLAND KS
800 PM CDT SUN MAY 29 2016

NOTE:  "FAIR" INDICATES FEW OR NO CLOUDS BELOW 12,000 FEET WITH NO
SIGNIFICANT WEATHER AND/OR OBSTRUCTIONS TO VISIBILITY.

KSZ001>006-013>018-027>032-041>047-300200-
NORTHWEST KANSAS

CITY           SKY/WX    TMP DP  RH WIND       PRES   REMARKS
GOODLAND       LGT RAIN  59  53  80 S23G35    30.07R
HAYS           CLOUDY    72  48  43 W16G23    30.03R
HILL CITY      CLOUDY    68  50  52 S20G28    29.99F
$$

KSZ061>065-074>080-084>089-300200-
SOUTHWEST KANSAS

CITY           SKY/WX    TMP DP  RH WIND       PRES   REMARKS
DODGE CITY     CLOUDY    68  54  60 S13       30.04R
ELKHART          N/A     62  56  81 E1          N/A
GARDEN CITY    CLOUDY    70  49  47 S8        30.04R
GREAT BEND     CLOUDY    75  59  57 S7        30.04R
LIBERAL        CLOUDY    66  46  48 SW18G25   30.08R
PRATT          CLOUDY    73  56  56 S10G17    30.06R
$$

KSZ066>073-081>083-090>101-300200-
SOUTHEAST KANSAS

CITY           SKY/WX    TMP DP  RH WIND       PRES   REMARKS
CHANUTE        MOCLDY    75  70  84 SE3       30.04F
COFFEYVILLE    MOCLDY    75  68  78 CALM      30.04R
HUTCHINSON     CLOUDY    73  60  63 SE9       30.02F
MEDICINE LODGE   N/A     75  60  59 SW5       30.05R
NEWTON         CLOUDY    70  55  60 SE5       30.04F
PARSONS        MOCLDY    76  70  82 CALM      30.05S
WICHITA INTL   CLOUDY    74  59  59 S6        30.01F
WICHITA JABRA  CLOUDY    72  58  61 SE5       30.01F
WICHITA MCCONL CLOUDY    73  59  60 S9        30.01F
WINFIELD       CLOUDY    76  60  57 SE7       30.04R
$$

KSZ007>012-019>026-033>040-048>060-102>105-300200-
NORTHEAST KANSAS

CITY           SKY/WX    TMP DP  RH WIND       PRES   REMARKS
CONCORDIA      CLOUDY    70  57  63 S9        30.00F
EMPORIA        CLOUDY    73  65  75 S5        30.02F
LAWRENCE       CLOUDY    76  67  73 SE6       30.02F
MANHATTAN      CLOUDY    71  65  81 CALM      30.00F
MARYSVILLE     CLOUDY    73  61  64 S5        30.01F
OLATHE IND     CLOUDY    77  63  61 SE3       30.05S
OLATHE EXE     CLOUDY    77  61  57 S3        30.05S
SALINA         CLOUDY    74  63  68 S10       30.00F
TOPEKA BILLARD MOCLDY    77  65  66 SE6       30.01F
TOPEKA FORBES  MOCLDY    78  67  68 SE6       30.01F
$$



USA.gov is the U.S. government's official web portal to all federal, state and local government web resources and services.